Location: ?????
(32.7281°N, 34.9563°E)
Time: 18:21:23
(UTC+00:00)

Okean O Rocket - Pass Details

Date: 29 October 2020
Orbit: 623 x 644 km, 98.2° (Epoch: 29 November)

Event Time Altitude Azimuth Distance (km) Brightness Sun altitude
Rises 15:40:22 0° 183° (S) 2,909 5.2 -10.8°
Reaches altitude 10° 15:42:40 10° 190° (S) 2,002 4.4 -11.3°
Maximum altitude 15:46:46 40° 260° (W) 922 3.1 -12.1°
Drops below altitude 10° 15:50:53 10° 331° (NNW) 2,003 4.4 -13.0°
Sets 15:53:11 0° 339° (NNW) 2,911 5.2 -13.5°
